| time (UTC) | temp C | wind direction | speed KPH | gust KPH | rain 1hr cm | rain 24hr cm | rain mn cm | humidity % | barometer mb |
| 20260903031146 | 27 | 224 | 0.0 | 0.0 | 0.00 | 0.00 | 1.73 | 90 | 1015.6 |
| 20260903030647 | 27 | 224 | 0.0 | 1.6 | 0.00 | 0.00 | 1.73 | 90 | 1015.2 |
| 20260903030148 | 27 | 171 | 1.6 | 3.2 | 0.00 | 0.00 | 1.73 | 89 | 1015.2 |
| 20260903025646 | 27 | 195 | 0.0 | 1.6 | 0.00 | 0.00 | 1.73 | 89 | 1015.2 |
| 20260903025146 | 28 | 217 | 0.0 | 0.0 | 0.00 | 0.00 | 1.73 | 89 | 1015.6 |
| 20260903024647 | 28 | 180 | 0.0 | 0.0 | 0.00 | 0.00 | 1.73 | 88 | 1015.6 |
| 20260903024146 | 28 | 180 | 3.2 | 3.2 | 0.00 | 0.00 | 1.73 | 89 | 1015.6 |
| 20260903023646 | 28 | 175 | 3.2 | 3.2 | 0.00 | 0.00 | 1.73 | 89 | 1015.2 |
| 20260903023148 | 28 | 179 | 1.6 | 3.2 | 0.00 | 0.00 | 1.73 | 88 | 1015.2 |
| 20260903022648 | 28 | 168 | 0.0 | 3.2 | 0.00 | 0.00 | 1.73 | 88 | 1015.2 |
| 20260903022146 | 28 | 201 | 1.6 | 3.2 | 0.00 | 0.00 | 1.73 | 88 | 1015.2 |
| 20260903021646 | 28 | 200 | 3.2 | 3.2 | 0.00 | 0.00 | 1.73 | 88 | 1015.2 |
| 20260903021147 | 28 | 183 | 1.6 | 3.2 | 0.00 | 0.00 | 1.73 | 87 | 1015.2 |
| 20260903020647 | 28 | 202 | 1.6 | 3.2 | 0.00 | 0.00 | 1.73 | 87 | 1015.2 |
| 20260903020147 | 28 | 184 | 1.6 | 3.2 | 0.00 | 0.00 | 1.73 | 87 | 1015.2 |
| 20260903015647 | 28 | 173 | 3.2 | 3.2 | 0.00 | 0.00 | 1.73 | 86 | 1014.9 |
| 20260903015149 | 28 | 193 | 0.0 | 3.2 | 0.00 | 0.00 | 1.73 | 86 | 1014.9 |
| 20260903014646 | 28 | 184 | 0.0 | 3.2 | 0.00 | 0.00 | 1.73 | 86 | 1014.9 |
| 20260903014147 | 28 | 180 | 3.2 | 3.2 | 0.00 | 0.00 | 1.73 | 86 | 1014.9 |
| 20260903013648 | 28 | 165 | 3.2 | 4.8 | 0.00 | 0.00 | 1.73 | 85 | 1014.9 |
| 20260903013148 | 28 | 168 | 3.2 | 4.8 | 0.00 | 0.00 | 1.73 | 85 | 1014.6 |
| 20260903012651 | 28 | 169 | 1.6 | 3.2 | 0.00 | 0.00 | 1.73 | 85 | 1014.6 |
| 20260903012147 | 28 | 161 | 3.2 | 4.8 | 0.00 | 0.00 | 1.73 | 86 | 1014.6 |
| 20260903011649 | 28 | 179 | 1.6 | 4.8 | 0.00 | 0.00 | 1.73 | 85 | 1014.6 |
| 20260903011147 | 28 | 180 | 1.6 | 3.2 | 0.00 | 0.00 | 1.73 | 84 | 1014.6 |
| 20260903010647 | 28 | 168 | 3.2 | 4.8 | 0.00 | 0.00 | 1.73 | 84 | 1014.2 |
| 20260903010148 | 28 | 187 | 3.2 | 3.2 | 0.00 | 0.00 | 1.73 | 85 | 1014.6 |
| 20260903005646 | 28 | 210 | 3.2 | 3.2 | 0.00 | 0.00 | 1.73 | 85 | 1014.2 |
| 20260903005146 | 28 | 207 | 3.2 | 3.2 | 0.00 | 0.00 | 1.73 | 84 | 1014.2 |
| 20260903004647 | 28 | 212 | 3.2 | 3.2 | 0.00 | 0.00 | 1.73 | 84 | 1014.2 |
| 20260903004146 | 28 | 196 | 3.2 | 4.8 | 0.00 | 0.00 | 1.73 | 83 | 1014.2 |
| 20260903003647 | 28 | 175 | 4.8 | 6.4 | 0.00 | 0.00 | 1.73 | 83 | 1014.2 |
| 20260903003147 | 28 | 177 | 3.2 | 4.8 | 0.00 | 0.00 | 1.73 | 83 | 1014.2 |
| 20260903002647 | 28 | 199 | 3.2 | 4.8 | 0.00 | 0.00 | 1.73 | 82 | 1014.2 |
| 20260903002147 | 28 | 167 | 3.2 | 4.8 | 0.00 | 0.00 | 1.73 | 82 | 1014.2 |
| 20260903001647 | 29 | 178 | 3.2 | 4.8 | 0.00 | 0.00 | 1.73 | 82 | 1014.2 |
| 20260903001147 | 29 | 191 | 4.8 | 6.4 | 0.00 | 0.00 | 1.73 | 82 | 1014.2 |
| 20260903000647 | 29 | 182 | 4.8 | 4.8 | 0.00 | 0.00 | 1.73 | 82 | 1014.2 |
| 20260903000146 | 29 | 214 | 6.4 | 8.0 | 0.00 | 0.00 | 1.73 | 81 | 1014.2 |
| 20260902235646 | 29 | 185 | 3.2 | 9.7 | 0.00 | 0.00 | 1.73 | 80 | 1014.2 |
| 20260902235147 | 29 | 186 | 4.8 | 9.7 | 0.00 | 0.00 | 1.73 | 81 | 1014.2 |
| 20260902234646 | 29 | 181 | 4.8 | 8.0 | 0.00 | 0.00 | 1.73 | 80 | 1014.2 |
| 20260902234146 | 30 | 213 | 4.8 | 8.0 | 0.00 | 0.00 | 1.73 | 80 | 1014.2 |
| 20260902233646 | 30 | 242 | 3.2 | 6.4 | 0.00 | 0.00 | 1.73 | 79 | 1014.2 |
| 20260902233146 | 30 | 197 | 4.8 | 6.4 | 0.00 | 0.00 | 1.73 | 79 | 1014.6 |
| 20260902232646 | 30 | 191 | 6.4 | 9.7 | 0.00 | 0.00 | 1.73 | 78 | 1014.2 |
| 20260902232147 | 30 | 194 | 6.4 | 6.4 | 0.00 | 0.00 | 1.73 | 78 | 1014.6 |
| 20260902231647 | 30 | 198 | 8.0 | 9.7 | 0.00 | 0.00 | 1.73 | 78 | 1014.2 |
| 20260902231146 | 30 | 193 | 4.8 | 6.4 | 0.00 | 0.00 | 1.73 | 77 | 1014.2 |
| 20260902230647 | 30 | 177 | 8.0 | 9.7 | 0.00 | 0.00 | 1.73 | 76 | 1014.2 |
| 20260902230146 | 30 | 169 | 3.2 | 9.7 | 0.00 | 0.00 | 1.73 | 76 | 1014.2 |
| 20260902225647 | 30 | 174 | 3.2 | 6.4 | 0.00 | 0.00 | 1.73 | 76 | 1014.2 |
| 20260902225146 | 30 | 172 | 8.0 | 11.3 | 0.00 | 0.00 | 1.73 | 76 | 1014.2 |
| 20260902224646 | 30 | 192 | 3.2 | 8.0 | 0.00 | 0.00 | 1.73 | 76 | 1014.2 |
| 20260902224147 | 30 | 237 | 4.8 | 8.0 | 0.00 | 0.00 | 1.73 | 76 | 1014.2 |
| 20260902223646 | 30 | 158 | 3.2 | 11.3 | 0.00 | 0.00 | 1.73 | 74 | 1014.2 |
| 20260902223147 | 30 | 210 | 8.0 | 9.7 | 0.00 | 0.00 | 1.73 | 74 | 1014.2 |
| 20260902222648 | 30 | 197 | 6.4 | 9.7 | 0.00 | 0.00 | 1.73 | 74 | 1014.2 |
| 20260902222147 | 30 | 208 | 11.3 | 14.5 | 0.00 | 0.00 | 1.73 | 75 | 1014.2 |
| 20260902221646 | 30 | 224 | 9.7 | 12.9 | 0.00 | 0.00 | 1.73 | 75 | 1014.6 |
| 20260902221146 | 30 | 205 | 6.4 | 9.7 | 0.00 | 0.00 | 1.73 | 74 | 1014.6 |
| 20260902220647 | 31 | 198 | 6.4 | 9.7 | 0.00 | 0.00 | 1.73 | 75 | 1014.9 |
| 20260902220146 | 31 | 254 | 4.8 | 6.4 | 0.00 | 0.00 | 1.73 | 73 | 1014.9 |
| 20260902215647 | 30 | 257 | 3.2 | 6.4 | 0.00 | 0.00 | 1.73 | 76 | 1014.6 |
| 20260902215146 | 30 | 339 | 0.0 | 4.8 | 0.00 | 0.00 | 1.73 | 75 | 1014.9 |
| 20260902214647 | 29 | 269 | 0.0 | 4.8 | 0.00 | 0.00 | 1.73 | 81 | 1014.6 |
| 20260902214150 | 28 | 337 | 0.0 | 6.4 | 0.00 | 0.00 | 1.73 | 82 | 1014.9 |
| 20260902213648 | 28 | 314 | 0.0 | 4.8 | 0.00 | 0.00 | 1.73 | 87 | 1014.9 |
| 20260902213146 | 27 | 261 | 3.2 | 4.8 | 0.05 | 0.00 | 1.73 | 90 | 1015.2 |
| 20260902212646 | 27 | 227 | 4.8 | 8.0 | 0.13 | 0.00 | 1.73 | 90 | 1014.9 |
| 20260902212146 | 27 | 274 | 8.0 | 9.7 | 0.05 | 0.00 | 1.70 | 91 | 1014.9 |
| 20260902211646 | 26 | 326 | 6.4 | 8.0 | 0.05 | 0.00 | 1.70 | 92 | 1014.9 |
| 20260902211147 | 26 | 303 | 4.8 | 8.0 | 0.05 | 0.00 | 1.70 | 91 | 1015.2 |
| 20260902210648 | 26 | 319 | 6.4 | 14.5 | 0.00 | 0.00 | 1.70 | 90 | 1014.9 |
| 20260902210147 | 26 | 299 | 8.0 | 14.5 | 0.05 | 0.00 | 1.70 | 91 | 1015.2 |
| 20260902205646 | 26 | 283 | 8.0 | 11.3 | 0.05 | 0.00 | 1.70 | 91 | 1015.6 |
| 20260902205146 | 25 | 325 | 0.0 | 8.0 | 0.00 | 0.00 | 1.68 | 92 | 1015.6 |
| 20260902204646 | 25 | 15 | 3.2 | 11.3 | 0.13 | 0.00 | 1.68 | 96 | 1015.6 |
| 20260902204147 | 25 | 289 | 9.7 | 14.5 | 0.30 | 0.00 | 1.68 | 96 | 1015.2 |
| 20260902203646 | 25 | 305 | 12.9 | 14.5 | 0.71 | 0.00 | 1.65 | 97 | 1015.6 |
| 20260902203147 | 25 | 298 | 12.9 | 19.3 | 1.93 | 0.00 | 1.63 | 97 | 1015.6 |
| 20260902202646 | 25 | 289 | 12.9 | 14.5 | 4.09 | 0.00 | 1.52 | 97 | 1015.9 |
| 20260902202148 | 25 | 259 | 4.8 | 6.4 | 2.39 | 0.00 | 1.24 | 97 | 1015.9 |
| 20260902201646 | 25 | 238 | 8.0 | 12.9 | 0.18 | 0.00 | 0.84 | 96 | 1015.9 |
| 20260902201147 | 25 | 279 | 17.7 | 22.5 | 2.46 | 0.00 | 0.84 | 97 | 1015.6 |
| 20260902200647 | 25 | 269 | 14.5 | 22.5 | 4.67 | 0.00 | 0.79 | 97 | 1015.2 |
| 20260902200146 | 26 | 201 | 19.3 | 29.0 | 2.82 | 0.00 | 0.46 | 94 | 1015.6 |
| 20260902195646 | 27 | 176 | 11.3 | 24.1 | 0.00 | 0.00 | 0.00 | 87 | 1015.6 |
| 20260902195146 | 28 | 209 | 14.5 | 24.1 | 0.00 | 0.00 | 0.00 | 85 | 1015.2 |
| 20260902194646 | 28 | 213 | 11.3 | 25.7 | 0.00 | 0.00 | 0.00 | 83 | 1015.6 |
| 20260902194146 | 28 | 244 | 8.0 | 20.9 | 0.00 | 0.00 | 0.00 | 83 | 1015.2 |
| 20260902193646 | 29 | 206 | 11.3 | 20.9 | 0.00 | 0.00 | 0.00 | 81 | 1015.6 |
| 20260902193146 | 30 | 188 | 12.9 | 16.1 | 0.00 | 0.00 | 0.00 | 80 | 1015.6 |
| 20260902192647 | 30 | 197 | 12.9 | 20.9 | 0.00 | 0.00 | 0.00 | 78 | 1015.6 |
| 20260902192147 | 32 | 202 | 11.3 | 20.9 | 0.00 | 0.00 | 0.00 | 69 | 1015.6 |
| 20260902191648 | 33 | 175 | 16.1 | 16.1 | 0.00 | 0.00 | 0.00 | 62 | 1015.6 |
| 20260902191150 | 34 | 129 | 1.6 | 12.9 | 0.00 | 0.00 | 0.00 | 61 | 1015.2 |
| 20260902190647 | 34 | 173 | 4.8 | 8.0 | 0.00 | 0.00 | 0.00 | 61 | 1015.2 |
| 20260902190146 | 34 | 162 | 8.0 | 14.5 | 0.00 | 0.00 | 0.00 | 59 | 1015.6 |
| 20260902185646 | 34 | 198 | 3.2 | 6.4 | 0.00 | 0.00 | 0.00 | 60 | 1015.6 |
| 20260902185147 | 33 | 55 | 1.6 | 8.0 | 0.00 | 0.00 | 0.00 | 60 | 1015.9 |
| 20260902184646 | 33 | 58 | 6.4 | 14.5 | 0.00 | 0.00 | 0.00 | 58 | 1015.9 |
| 20260902184146 | 33 | 50 | 8.0 | 11.3 | 0.00 | 0.00 | 0.00 | 60 | 1015.9 |
| 20260902183647 | 33 | 65 | 6.4 | 8.0 | 0.00 | 0.00 | 0.00 | 62 | 1015.9 |
| 20260902183146 | 33 | 96 | 8.0 | 9.7 | 0.00 | 0.00 | 0.00 | 62 | 1016.3 |
| 20260902182646 | 33 | 79 | 6.4 | 9.7 | 0.00 | 0.00 | 0.00 | 60 | 1016.3 |
| 20260902182149 | 33 | 24 | 8.0 | 14.5 | 0.00 | 0.00 | 0.00 | 60 | 1016.3 |
| 20260902181647 | 33 | 58 | 6.4 | 12.9 | 0.00 | 0.00 | 0.00 | 59 | 1015.9 |
| 20260902181148 | 33 | 52 | 3.2 | 9.7 | 0.00 | 0.00 | 0.00 | 63 | 1015.9 |
| 20260902180647 | 33 | 174 | 3.2 | 9.7 | 0.00 | 0.00 | 0.00 | 64 | 1015.9 |
| 20260902180148 | 32 | 47 | 6.4 | 16.1 | 0.00 | 0.00 | 0.00 | 63 | 1016.3 |
| 20260902175648 | 32 | 28 | 8.0 | 14.5 | 0.00 | 0.00 | 0.00 | 65 | 1016.3 |
| 20260902175147 | 32 | 70 | 11.3 | 12.9 | 0.00 | 0.00 | 0.00 | 65 | 1015.9 |
| 20260902174647 | 32 | 78 | 9.7 | 14.5 | 0.00 | 0.00 | 0.00 | 67 | 1016.3 |
| 20260902173714 | 32 | 40 | 9.7 | 17.7 | 0.00 | 0.00 | 0.00 | 67 | 1016.6 |
| 20260902173147 | 32 | 27 | 9.7 | 16.1 | 0.00 | 0.00 | 0.00 | 68 | 1016.6 |
| 20260902172649 | 32 | 19 | 9.7 | 16.1 | 0.00 | 0.00 | 0.00 | 68 | 1016.6 |
| 20260902172147 | 32 | 54 | 8.0 | 16.1 | 0.00 | 0.00 | 0.00 | 67 | 1016.6 |
| 20260902171647 | 32 | 44 | 9.7 | 12.9 | 0.00 | 0.00 | 0.00 | 69 | 1016.9 |
| 20260902171147 | 32 | 79 | 8.0 | 14.5 | 0.00 | 0.00 | 0.00 | 69 | 1016.9 |
| 20260902170646 | 32 | 46 | 9.7 | 11.3 | 0.00 | 0.00 | 0.00 | 70 | 1016.9 |
| 20260902170146 | 32 | 32 | 8.0 | 11.3 | 0.00 | 0.00 | 0.00 | 71 | 1016.9 |
| 20260902165647 | 31 | 44 | 6.4 | 17.7 | 0.00 | 0.00 | 0.00 | 72 | 1017.3 |
| 20260902165150 | 31 | 58 | 6.4 | 11.3 | 0.00 | 0.00 | 0.00 | 72 | 1016.9 |
| 20260902164646 | 31 | 28 | 4.8 | 8.0 | 0.00 | 0.00 | 0.00 | 75 | 1016.9 |
| 20260902164146 | 32 | 358 | 3.2 | 9.7 | 0.00 | 0.00 | 0.00 | 72 | 1017.3 |
| 20260902163649 | 32 | 324 | 4.8 | 11.3 | 0.00 | 0.00 | 0.00 | 72 | 1017.3 |
| 20260902163146 | 32 | 16 | 8.0 | 11.3 | 0.00 | 0.00 | 0.00 | 72 | 1017.3 |
| 20260902162648 | 32 | 45 | 0.0 | 12.9 | 0.00 | 0.00 | 0.00 | 72 | 1017.3 |
| 20260902162150 | 32 | 13 | 8.0 | 14.5 | 0.00 | 0.00 | 0.00 | 71 | 1017.6 |
| 20260902161646 | 32 | 39 | 8.0 | 12.9 | 0.00 | 0.00 | 0.00 | 72 | 1017.6 |
| 20260902161147 | 31 | 43 | 6.4 | 14.5 | 0.00 | 0.00 | 0.00 | 72 | 1017.3 |
| 20260902160646 | 31 | 25 | 0.0 | 8.0 | 0.00 | 0.00 | 0.00 | 73 | 1017.3 |
| 20260902160147 | 32 | 34 | 8.0 | 9.7 | 0.00 | 0.00 | 0.00 | 72 | 1017.3 |
| 20260902155646 | 31 | 56 | 6.4 | 9.7 | 0.00 | 0.00 | 0.00 | 70 | 1017.3 |
| 20260902155146 | 31 | 64 | 6.4 | 9.7 | 0.00 | 0.00 | 0.00 | 70 | 1017.3 |
| 20260902154647 | 32 | 80 | 6.4 | 11.3 | 0.00 | 0.00 | 0.00 | 70 | 1017.6 |
| 20260902154147 | 32 | 334 | 3.2 | 12.9 | 0.00 | 0.00 | 0.00 | 70 | 1017.3 |
| 20260902153205 | 32 | 54 | 4.8 | 9.7 | 0.00 | 0.00 | 0.00 | 70 | 1017.6 |
| 20260902152647 | 32 | 52 | 4.8 | 9.7 | 0.00 | 0.00 | 0.00 | 71 | 1017.3 |
| 20260902152148 | 31 | 35 | 3.2 | 8.0 | 0.00 | 0.00 | 0.00 | 73 | 1017.3 |
| 20260902151647 | 31 | 166 | 4.8 | 9.7 | 0.00 | 0.00 | 0.00 | 76 | 1017.3 |
| 20260902151147 | 31 | 35 | 8.0 | 11.3 | 0.00 | 0.00 | 0.00 | 74 | 1017.3 |
| 20260902150647 | 31 | 33 | 8.0 | 11.3 | 0.00 | 0.00 | 0.00 | 75 | 1017.3 |
| 20260902150147 | 31 | 56 | 4.8 | 9.7 | 0.00 | 0.00 | 0.00 | 76 | 1017.3 |
| 20260902145647 | 30 | 42 | 1.6 | 11.3 | 0.00 | 0.00 | 0.00 | 78 | 1017.3 |
| 20260902145146 | 31 | 360 | 3.2 | 11.3 | 0.00 | 0.00 | 0.00 | 76 | 1017.3 |
| 20260902144646 | 31 | 46 | 4.8 | 9.7 | 0.00 | 0.00 | 0.00 | 78 | 1017.3 |
| 20260902144146 | 31 | 26 | 4.8 | 11.3 | 0.00 | 0.00 | 0.00 | 77 | 1017.3 |
| 20260902143648 | 31 | 44 | 3.2 | 4.8 | 0.00 | 0.00 | 0.00 | 77 | 1017.3 |
| 20260902143146 | 30 | 85 | 3.2 | 8.0 | 0.00 | 0.00 | 0.00 | 79 | 1017.3 |
| 20260902142647 | 30 | 357 | 3.2 | 8.0 | 0.00 | 0.00 | 0.00 | 78 | 1017.3 |
| 20260902142147 | 30 | 92 | 6.4 | 9.7 | 0.00 | 0.00 | 0.00 | 80 | 1017.3 |
| 20260902141647 | 30 | 66 | 8.0 | 11.3 | 0.00 | 0.00 | 0.00 | 80 | 1017.6 |
| 20260902141147 | 30 | 49 | 4.8 | 9.7 | 0.00 | 0.00 | 0.00 | 80 | 1017.3 |
| 20260902140649 | 30 | 29 | 6.4 | 12.9 | 0.00 | 0.00 | 0.00 | 81 | 1017.3 |
| 20260902140147 | 30 | 65 | 9.7 | 9.7 | 0.00 | 0.00 | 0.00 | 82 | 1017.3 |
| 20260902135647 | 30 | 66 | 8.0 | 9.7 | 0.00 | 0.00 | 0.00 | 81 | 1017.3 |
| 20260902135146 | 30 | 341 | 0.0 | 4.8 | 0.00 | 0.00 | 0.00 | 81 | 1017.3 |
| 20260902134647 | 30 | 58 | 3.2 | 6.4 | 0.00 | 0.00 | 0.00 | 83 | 1017.3 |
| 20260902134148 | 30 | 69 | 6.4 | 8.0 | 0.00 | 0.00 | 0.00 | 83 | 1017.3 |
| 20260902133646 | 30 | 84 | 0.0 | 6.4 | 0.00 | 0.00 | 0.00 | 83 | 1016.9 |
| 20260902133147 | 30 | 5 | 1.6 | 3.2 | 0.00 | 0.00 | 0.00 | 83 | 1016.9 |
| 20260902132646 | 29 | 67 | 3.2 | 4.8 | 0.00 | 0.00 | 0.00 | 86 | 1017.3 |
| 20260902132146 | 28 | 62 | 4.8 | 8.0 | 0.00 | 0.00 | 0.00 | 87 | 1016.9 |
| 20260902131647 | 29 | 32 | 4.8 | 4.8 | 0.00 | 0.00 | 0.00 | 86 | 1016.9 |
| 20260902131147 | 28 | 13 | 0.0 | 4.8 | 0.00 | 0.00 | 0.00 | 87 | 1017.3 |
| 20260902130646 | 28 | 46 | 1.6 | 4.8 | 0.00 | 0.00 | 0.00 | 88 | 1016.9 |
| 20260902130150 | 28 | 279 | 0.0 | 6.4 | 0.00 | 0.00 | 0.00 | 90 | 1017.3 |
| 20260902125647 | 27 | 348 | 3.2 | 8.0 | 0.00 | 0.00 | 0.00 | 91 | 1016.9 |
| 20260902125147 | 27 | 2 | 3.2 | 6.4 | 0.00 | 0.00 | 0.00 | 91 | 1016.6 |
| 20260902124647 | 27 | 38 | 6.4 | 8.0 | 0.00 | 0.00 | 0.00 | 91 | 1016.9 |
| 20260902124147 | 27 | 16 | 1.6 | 6.4 | 0.00 | 0.00 | 0.00 | 91 | 1016.6 |
| 20260902123647 | 28 | 335 | 4.8 | 6.4 | 0.00 | 0.00 | 0.00 | 90 | 1016.9 |
| 20260902123146 | 28 | 166 | 0.0 | 4.8 | 0.00 | 0.00 | 0.00 | 89 | 1016.6 |
| 20260902122650 | 28 | 37 | 1.6 | 8.0 | 0.00 | 0.00 | 0.00 | 90 | 1016.3 |
| 20260902122147 | 28 | 31 | 4.8 | 8.0 | 0.00 | 0.00 | 0.00 | 91 | 1016.6 |
| 20260902121646 | 27 | 19 | 6.4 | 8.0 | 0.00 | 0.00 | 0.00 | 91 | 1016.6 |
| 20260902121146 | 27 | 359 | 4.8 | 8.0 | 0.00 | 0.00 | 0.00 | 92 | 1016.6 |
| 20260902120213 | 27 | 61 | 4.8 | 9.7 | 0.00 | 0.00 | 0.00 | 94 | 1016.6 |
| 20260902115646 | 27 | 40 | 4.8 | 8.0 | 0.00 | 0.00 | 0.00 | 95 | 1016.3 |
| 20260902115147 | 26 | 7 | 3.2 | 6.4 | 0.00 | 0.00 | 0.00 | 95 | 1016.3 |
| 20260902114646 | 26 | 163 | 3.2 | 4.8 | 0.00 | 0.00 | 0.00 | 96 | 1016.3 |
| 20260902114146 | 26 | 38 | 3.2 | 4.8 | 0.00 | 0.00 | 0.00 | 97 | 1016.3 |
| 20260902113646 | 26 | 331 | 1.6 | 4.8 | 0.00 | 0.00 | 0.00 | 97 | 1015.9 |
| 20260902113147 | 26 | 209 | 1.6 | 3.2 | 0.00 | 0.00 | 0.00 | 96 | 1016.3 |
| 20260902112647 | 26 | 227 | 1.6 | 3.2 | 0.00 | 0.00 | 0.00 | 96 | 1015.9 |
| 20260902112147 | 26 | 195 | 0.0 | 1.6 | 0.00 | 0.00 | 0.00 | 95 | 1015.9 |
| 20260902111647 | 26 | 135 | 0.0 | 1.6 | 0.00 | 0.00 | 0.00 | 95 | 1015.9 |
| 20260902111146 | 26 | 117 | 0.0 | 3.2 | 0.00 | 0.00 | 0.00 | 96 | 1015.9 |
| 20260902110647 | 26 | 44 | 0.0 | 3.2 | 0.00 | 0.00 | 0.00 | 96 | 1015.9 |
| 20260902110147 | 26 | 190 | 0.0 | 0.0 | 0.00 | 0.00 | 0.00 | 96 | 1015.9 |
| 20260902105647 | 26 | 201 | 0.0 | 1.6 | 0.00 | 0.00 | 0.00 | 96 | 1015.9 |
| 20260902105150 | 26 | 224 | 0.0 | 1.6 | 0.00 | 0.00 | 0.00 | 95 | 1015.9 |
| 20260902104646 | 26 | 157 | 0.0 | 1.6 | 0.00 | 0.00 | 0.00 | 95 | 1015.6 |
| 20260902104147 | 26 | 117 | 0.0 | 0.0 | 0.00 | 0.00 | 0.00 | 95 | 1015.6 |
| 20260902103647 | 26 | 23 | 0.0 | 3.2 | 0.00 | 0.00 | 0.00 | 96 | 1015.6 |
| 20260902103146 | 26 | 157 | 0.0 | 1.6 | 0.00 | 0.00 | 0.00 | 95 | 1015.6 |
| 20260902102646 | 26 | 218 | 0.0 | 1.6 | 0.00 | 0.00 | 0.00 | 95 | 1015.6 |
| 20260902102146 | 26 | 142 | 0.0 | 1.6 | 0.00 | 0.00 | 0.00 | 95 | 1015.6 |
| 20260902101646 | 26 | 104 | 0.0 | 1.6 | 0.00 | 0.00 | 0.00 | 95 | 1015.6 |
| 20260902101147 | 26 | 22 | 1.6 | 3.2 | 0.00 | 0.00 | 0.00 | 96 | 1015.6 |
| 20260902100646 | 26 | 135 | 0.0 | 1.6 | 0.00 | 0.00 | 0.00 | 95 | 1015.6 |
| 20260902100147 | 26 | 89 | 0.0 | 1.6 | 0.00 | 0.00 | 0.00 | 95 | 1015.6 |
| 20260902095646 | 26 | 217 | 0.0 | 1.6 | 0.00 | 0.00 | 0.00 | 95 | 1015.6 |
| 20260902095147 | 26 | 135 | 0.0 | 0.0 | 0.00 | 0.00 | 0.00 | 95 | 1015.6 |
| 20260902094646 | 26 | 135 | 0.0 | 1.6 | 0.00 | 0.00 | 0.00 | 95 | 1015.6 |
| 20260902094147 | 26 | 42 | 1.6 | 3.2 | 0.00 | 0.00 | 0.00 | 95 | 1015.2 |
| 20260902093647 | 26 | 124 | 0.0 | 3.2 | 0.00 | 0.00 | 0.00 | 96 | 1015.2 |
| 20260902093146 | 26 | 242 | 0.0 | 1.6 | 0.00 | 0.00 | 0.00 | 96 | 1015.2 |
| 20260902092647 | 26 | 213 | 3.2 | 3.2 | 0.00 | 0.00 | 0.00 | 96 | 1015.2 |
| 20260902092146 | 26 | 216 | 1.6 | 1.6 | 0.00 | 0.00 | 0.00 | 95 | 1015.2 |
| 20260902091647 | 26 | 224 | 0.0 | 1.6 | 0.00 | 0.00 | 0.00 | 95 | 1015.6 |
| 20260902091146 | 26 | 221 | 1.6 | 1.6 | 0.00 | 0.00 | 0.00 | 95 | 1015.2 |
| 20260902090647 | 26 | 215 | 1.6 | 3.2 | 0.00 | 0.00 | 0.00 | 95 | 1015.2 |
| 20260902090146 | 26 | 201 | 1.6 | 1.6 | 0.00 | 0.00 | 0.00 | 94 | 1015.2 |
| 20260902085646 | 26 | 205 | 0.0 | 3.2 | 0.00 | 0.00 | 0.00 | 93 | 1015.2 |
| 20260902085147 | 26 | 89 | 0.0 | 3.2 | 0.00 | 0.00 | 0.00 | 94 | 1015.2 |
| 20260902084647 | 26 | 75 | 3.2 | 4.8 | 0.00 | 0.00 | 0.00 | 94 | 1015.2 |
| 20260902084147 | 26 | 67 | 1.6 | 3.2 | 0.00 | 0.00 | 0.00 | 94 | 1015.2 |
| 20260902083646 | 26 | 89 | 1.6 | 3.2 | 0.00 | 0.00 | 0.00 | 94 | 1015.2 |
| 20260902083147 | 26 | 72 | 1.6 | 3.2 | 0.00 | 0.00 | 0.00 | 94 | 1014.9 |
| 20260902082646 | 26 | 87 | 0.0 | 3.2 | 0.00 | 0.00 | 0.00 | 95 | 1015.2 |
| 20260902082146 | 26 | 103 | 3.2 | 4.8 | 0.00 | 0.00 | 0.00 | 96 | 1014.9 |
| 20260902081646 | 26 | 199 | 0.0 | 1.6 | 0.00 | 0.00 | 0.00 | 95 | 1015.2 |
| 20260902081147 | 26 | 233 | 3.2 | 3.2 | 0.00 | 0.00 | 0.00 | 96 | 1015.2 |
| 20260902080646 | 26 | 226 | 1.6 | 3.2 | 0.00 | 0.00 | 0.00 | 95 | 1015.2 |
| 20260902080146 | 26 | 214 | 0.0 | 3.2 | 0.00 | 0.00 | 0.00 | 95 | 1015.2 |
| 20260902075646 | 26 | 218 | 0.0 | 1.6 | 0.00 | 0.00 | 0.00 | 95 | 1015.2 |
| 20260902075147 | 26 | 230 | 0.0 | 3.2 | 0.00 | 0.00 | 0.00 | 95 | 1015.2 |
| 20260902074647 | 26 | 236 | 1.6 | 3.2 | 0.00 | 0.00 | 0.00 | 95 | 1014.9 |
| 20260902074146 | 26 | 227 | 1.6 | 1.6 | 0.00 | 0.00 | 0.00 | 94 | 1015.2 |
| 20260902073648 | 26 | 234 | 0.0 | 1.6 | 0.00 | 0.00 | 0.00 | 94 | 1015.2 |
| 20260902073148 | 26 | 226 | 1.6 | 3.2 | 0.00 | 0.00 | 0.00 | 94 | 1015.2 |
| 20260902072646 | 26 | 215 | 1.6 | 3.2 | 0.00 | 0.00 | 0.00 | 94 | 1015.2 |
| 20260902072147 | 26 | 194 | 1.6 | 3.2 | 0.00 | 0.00 | 0.00 | 94 | 1015.2 |
| 20260902071647 | 26 | 176 | 1.6 | 1.6 | 0.00 | 0.00 | 0.00 | 93 | 1015.2 |
| 20260902071146 | 26 | 186 | 1.6 | 3.2 | 0.00 | 0.00 | 0.00 | 93 | 1015.2 |
| 20260902070646 | 26 | 169 | 3.2 | 3.2 | 0.00 | 0.00 | 0.00 | 93 | 1015.6 |
| 20260902070147 | 26 | 186 | 0.0 | 3.2 | 0.00 | 0.00 | 0.00 | 93 | 1015.6 |
| 20260902065646 | 26 | 178 | 1.6 | 3.2 | 0.00 | 0.00 | 0.00 | 93 | 1015.6 |
| 20260902065146 | 26 | 185 | 1.6 | 3.2 | 0.00 | 0.00 | 0.00 | 93 | 1015.2 |
| 20260902064646 | 26 | 177 | 3.2 | 3.2 | 0.00 | 0.00 | 0.00 | 93 | 1015.6 |
| 20260902064146 | 26 | 179 | 1.6 | 3.2 | 0.00 | 0.00 | 0.00 | 92 | 1015.6 |
| 20260902063650 | 26 | 180 | 1.6 | 3.2 | 0.00 | 0.00 | 0.00 | 92 | 1015.6 |
| 20260902063146 | 26 | 176 | 1.6 | 3.2 | 0.00 | 0.00 | 0.00 | 92 | 1015.6 |
| 20260902062646 | 26 | 201 | 1.6 | 3.2 | 0.00 | 0.00 | 0.00 | 92 | 1015.6 |
| 20260902062147 | 26 | 177 | 1.6 | 3.2 | 0.00 | 0.00 | 0.00 | 92 | 1015.6 |
| 20260902061647 | 26 | 163 | 3.2 | 3.2 | 0.00 | 0.00 | 0.00 | 91 | 1015.6 |
| 20260902061146 | 26 | 185 | 1.6 | 3.2 | 0.00 | 0.00 | 0.00 | 91 | 1015.6 |
| 20260902060647 | 26 | 170 | 3.2 | 3.2 | 0.00 | 0.00 | 0.00 | 91 | 1015.6 |
| 20260902060149 | 27 | 170 | 3.2 | 3.2 | 0.00 | 0.00 | 0.00 | 91 | 1015.6 |
| 20260902055649 | 27 | 184 | 1.6 | 4.8 | 0.00 | 0.00 | 0.00 | 90 | 1015.9 |
| 20260902055146 | 27 | 160 | 3.2 | 3.2 | 0.00 | 0.00 | 0.00 | 90 | 1015.6 |
| 20260902054646 | 27 | 166 | 1.6 | 4.8 | 0.00 | 0.00 | 0.00 | 89 | 1015.6 |
| 20260902054147 | 27 | 152 | 3.2 | 4.8 | 0.00 | 0.00 | 0.00 | 89 | 1015.6 |
| 20260902053646 | 27 | 140 | 4.8 | 4.8 | 0.00 | 0.00 | 0.00 | 90 | 1015.9 |
| 20260902053147 | 27 | 66 | 1.6 | 3.2 | 0.00 | 0.00 | 0.00 | 89 | 1015.6 |
| 20260902052647 | 27 | 166 | 0.0 | 3.2 | 0.00 | 0.00 | 0.00 | 89 | 1015.9 |
| 20260902052147 | 27 | 130 | 1.6 | 3.2 | 0.00 | 0.00 | 0.00 | 89 | 1015.9 |
| 20260902051647 | 27 | 72 | 1.6 | 3.2 | 0.00 | 0.00 | 0.00 | 90 | 1015.9 |
| 20260902051147 | 27 | 77 | 0.0 | 3.2 | 0.00 | 0.00 | 0.00 | 90 | 1015.9 |
| 20260902050648 | 27 | 15 | 0.0 | 1.6 | 0.00 | 0.00 | 0.00 | 90 | 1015.6 |
| 20260902050146 | 27 | 67 | 0.0 | 1.6 | 0.00 | 0.00 | 0.00 | 90 | 1015.9 |
| 20260902045647 | 27 | 120 | 0.0 | 3.2 | 0.00 | 0.00 | 0.74 | 90 | 1015.6 |
| 20260902045146 | 27 | 40 | 0.0 | 3.2 | 0.00 | 0.00 | 0.74 | 89 | 1015.6 |
| 20260902044647 | 27 | 93 | 3.2 | 4.8 | 0.00 | 0.00 | 0.74 | 89 | 1015.6 |
| 20260902044146 | 27 | 153 | 4.8 | 6.4 | 0.00 | 0.00 | 0.74 | 89 | 1015.6 |
| 20260902043646 | 27 | 145 | 4.8 | 6.4 | 0.00 | 0.00 | 0.74 | 89 | 1015.9 |
| 20260902043147 | 27 | 140 | 4.8 | 4.8 | 0.00 | 0.00 | 0.74 | 89 | 1015.9 |
| 20260902042646 | 27 | 122 | 1.6 | 6.4 | 0.00 | 0.00 | 0.74 | 89 | 1015.6 |
| 20260902042146 | 27 | 157 | 3.2 | 6.4 | 0.00 | 0.00 | 0.74 | 89 | 1015.9 |
| 20260902041646 | 27 | 153 | 4.8 | 4.8 | 0.00 | 0.00 | 0.74 | 89 | 1015.6 |
| 20260902041147 | 27 | 160 | 4.8 | 6.4 | 0.00 | 0.00 | 0.74 | 89 | 1015.9 |
| 20260902040646 | 27 | 162 | 3.2 | 6.4 | 0.00 | 0.00 | 0.74 | 88 | 1015.9 |
| 20260902040147 | 27 | 139 | 3.2 | 4.8 | 0.00 | 0.00 | 0.74 | 88 | 1015.9 |
| 20260902035648 | 27 | 141 | 4.8 | 4.8 | 0.00 | 0.00 | 0.74 | 89 | 1015.9 |
| 20260902035147 | 27 | 153 | 1.6 | 4.8 | 0.00 | 0.00 | 0.74 | 89 | 1016.3 |
| 20260902034647 | 27 | 171 | 4.8 | 6.4 | 0.00 | 0.00 | 0.74 | 89 | 1016.3 |
| 20260902034146 | 27 | 133 | 4.8 | 4.8 | 0.00 | 0.00 | 0.74 | 89 | 1015.9 |
| 20260902033647 | 27 | 168 | 3.2 | 4.8 | 0.00 | 0.00 | 0.74 | 89 | 1015.9 |
| 20260902033147 | 27 | 149 | 3.2 | 4.8 | 0.00 | 0.00 | 0.74 | 88 | 1016.3 |
| 20260902032649 | 27 | 129 | 0.0 | 4.8 | 0.00 | 0.00 | 0.74 | 88 | 1016.3 |
| 20260902032146 | 27 | 97 | 3.2 | 8.0 | 0.00 | 0.00 | 0.74 | 88 | 1016.3 |
| 20260902031652 | 27 | 169 | 3.2 | 4.8 | 0.00 | 0.00 | 0.74 | 89 | 1016.3 |